Probability
4 5 7 6 3 1 2 4 5 6 8 6 4 4 4 4 3 3 4 6 9 13 14 12 11 11 8 6 6 6 7 7 5 4 4 4 4 4 6 6 5 6 6
6 7 8 8 6 4 4 4 5 7 9 7 5 4 5 4 4 4 4 6 9 12 14 14 13 11 9 7 6 6 7 7 6 5 6 7 6 6 6 6 6 6 6
7 8 9 9 8 7 6 6 6 6 7 6 6 5 6 6 6 6 6 6 8 11 14 15 14 12 10 8 7 7 9 9 8 7 9 10 9 8 8 8 8 7 7
8 9 9 9 9 10 8 6 6 4 4 5 6 6 7 7 8 7 7 7 9 11 14 15 14 12 10 9 9 9 11 12 11 10 10 11 10 9 10 10 9 7 6
9 9 9 10 11 11 9 6 5 5 5 5 6 7 8 8 9 8 7 7 10 14 16 16 14 12 11 13 14 14 14 16 15 13 12 12 11 9 10 10 9 7 5
10 10 10 11 12 12 10 7 6 8 9 6 5 6 8 8 9 9 9 9 11 16 18 17 15 12 11 14 18 19 20 20 18 16 15 15 13 11 10 10 9 7 6
12 13 13 13 14 14 13 11 11 11 11 10 8 7 8 8 9 10 12 12 12 14 16 16 15 13 13 14 17 19 21 21 18 17 16 16 14 12 11 11 10 8 8
14 16 17 16 15 16 16 17 16 15 14 13 13 13 12 12 12 11 13 13 12 13 14 15 15 15 16 16 16 17 18 19 18 16 14 13 12 12 11 9 8 7 8
15 16 17 17 16 16 19 21 21 20 18 17 18 18 18 18 16 15 14 12 12 13 14 13 13 15 18 18 18 17 16 16 16 13 10 9 9 9 7 6 6 6 7
17 16 17 19 18 18 19 21 23 24 23 22 21 21 22 22 20 18 17 14 13 15 15 13 14 16 18 19 18 15 13 13 12 9 5 4 5 4 4 4 5 6 6
20 20 20 22 23 22 20 19 21 25 26 24 23 23 24 25 24 23 22 20 18 18 17 16 17 19 19 17 14 10 9 8 6 3 2 1 1 1 1 1 2 3 3
24 24 26 27 26 24 22 21 21 24 25 24 23 23 24 27 29 28 27 25 21 20 20 19 20 21 19 14 9 7 6 4 2 0 0 0 0 0 0 0 0 0 0
24 25 28 30 27 25 25 24 24 25 25 24 24 24 25 27 29 30 29 26 22 22 22 21 20 21 19 13 7 5 4 2 0 0 0 0 0 1 1 0 0 0 0
20 23 28 30 30 27 26 27 26 26 26 26 25 25 26 26 28 29 29 28 25 23 24 23 22 22 19 14 9 6 4 2 1 0 0 0 0 0 1 1 0 0 1
21 24 27 30 32 31 29 29 29 28 27 27 26 26 26 26 27 28 29 30 27 24 23 24 24 23 18 12 8 7 6 4 2 1 0 0 0 0 0 0 0 0 1
28 29 29 31 34 33 31 31 31 31 29 27 25 25 25 25 25 26 27 29 29 26 24 24 24 22 16 10 6 6 7 6 4 2 1 0 0 0 0 0 0 0 1
34 34 32 32 34 34 32 31 31 31 31 28 26 24 24 24 25 27 28 29 29 27 23 22 21 19 15 11 8 8 7 7 6 4 2 1 0 0 0 0 0 0 0
36 36 35 34 34 34 33 32 30 30 30 29 28 26 25 26 26 27 28 28 26 24 22 19 17 16 14 14 13 10 8 7 6 4 2 1 0 0 0 0 0 0 0
35 36 35 33 33 33 33 31 29 27 27 28 29 29 27 27 26 26 25 24 23 22 20 16 13 14 14 14 14 11 9 9 7 4 2 0 0 0 0 0 0 0 0
32 33 33 32 31 30 28 26 24 24 25 26 28 28 27 25 23 21 20 20 20 20 19 15 11 12 13 13 12 11 11 11 8 5 3 2 1 1 1 0 0 0 0
30 32 32 30 28 25 22 21 21 21 24 26 25 24 24 22 18 15 15 16 16 16 16 12 9 9 11 11 11 11 12 11 8 6 5 4 3 2 1 0 0 0 0
32 32 31 28 26 23 19 18 19 21 24 26 23 21 20 17 14 12 11 11 12 13 12 9 7 8 9 9 10 10 11 10 8 6 4 4 3 2 1 0 0 0 0
34 32 29 27 25 21 15 14 16 20 24 25 22 20 17 13 11 12 11 9 10 10 9 7 8 9 9 10 10 11 11 11 8 6 4 4 3 1 0 0 0 0 0
33 31 29 25 21 16 11 9 12 18 23 23 21 19 17 14 10 10 10 11 12 11 8 7 8 9 9 9 10 11 12 11 10 8 6 5 3 2 0 0 0 0 0
33 31 28 23 18 14 9 6 9 15 20 21 20 19 18 15 10 8 10 12 13 12 10 7 7 7 7 7 8 10 12 12 11 9 7 5 4 3 2 2 1 0 0
35 32 27 22 17 15 10 6 7 14 19 21 19 18 17 15 10 7 9 12 13 13 11 8 5 3 4 4 5 8 12 13 12 11 8 5 4 3 3 4 2 1 0
Wind_Speed
0 0 0 0 1 1 1 1 1 2 2 2 2 2 1 2 1 2 3 7 8 9 9 9 9 9 9 8 7 7 7 7 8 8 8 9 9 9 9 9 9 9 9
0 0 1 1 1 1 0 1 1 2 2 2 2 2 3 3 2 2 3 5 8 9 9 9 9 9 9 9 9 8 8 8 8 9 9 9 9 9 9 10 10 9 9
0 1 1 0 1 1 1 1 1 1 2 2 2 3 3 3 2 2 3 3 4 7 8 9 9 9 9 9 9 9 9 8 8 8 9 10 10 9 9 9 10 10 9
0 1 1 0 1 1 1 1 1 1 1 1 2 2 2 2 3 4 3 4 4 4 6 9 9 8 8 8 8 8 9 9 8 8 8 9 10 9 9 9 9 9 9
1 1 0 0 1 1 1 1 0 1 1 2 2 2 2 2 3 4 4 4 4 4 4 6 9 8 8 8 8 7 8 9 9 9 9 9 9 9 9 9 10 10 9
0 1 1 0 1 0 0 1 1 1 1 2 3 2 2 2 3 3 4 3 3 4 4 5 4 5 7 7 6 6 7 7 7 8 8 8 9 8 9 9 10 10 10
1 1 2 0 1 0 0 1 1 2 1 1 1 2 2 2 2 2 2 2 2 2 3 3 3 3 3 6 5 5 5 6 5 6 6 6 6 7 7 9 9 9 9
1 1 1 2 1 1 0 1 1 1 2 1 1 2 1 1 1 1 2 2 2 2 2 3 3 3 3 2 3 5 5 5 5 4 5 5 5 6 7 8 8 8 8
1 2 1 1 2 2 1 1 1 2 2 2 1 1 1 1 2 1 1 1 2 2 2 2 3 3 3 2 3 4 5 4 5 5 5 4 4 4 6 7 8 8 7
1 1 1 1 2 2 2 2 1 1 2 2 1 1 1 0 1 2 1 0 1 1 1 2 2 2 2 2 2 2 3 3 4 5 5 5 4 4 5 5 7 7 6
1 0 0 0 1 1 2 3 2 2 2 2 2 2 2 1 1 1 2 2 1 1 2 2 2 2 2 2 2 3 3 2 2 3 4 4 4 5 5 5 6 6 7
1 0 0 0 1 1 2 2 2 2 2 2 2 2 2 2 2 2 2 2 2 2 2 1 1 2 2 1 1 4 4 4 2 2 3 3 4 4 5 5 6 6 7
0 1 0 0 1 1 2 2 2 2 2 3 2 2 3 3 2 2 2 2 3 2 1 1 1 1 2 2 2 3 4 4 3 3 3 3 3 3 4 4 5 5 5
1 0 1 0 1 2 2 2 2 2 2 3 3 3 3 3 2 2 2 2 3 2 1 1 0 0 1 2 2 4 3 4 3 3 3 2 2 2 2 3 3 3 4
1 1 0 0 1 1 2 2 2 2 2 2 3 2 3 3 3 2 2 2 2 3 3 1 0 0 0 1 2 2 2 4 4 4 3 2 2 1 1 1 1 2 2
1 1 1 1 2 2 2 2 3 2 2 3 2 2 3 3 3 3 2 2 1 2 3 2 1 0 0 0 1 1 1 4 4 4 5 4 3 2 2 1 0 1 1
1 0 1 2 2 1 2 2 3 3 3 3 3 2 3 3 3 3 3 2 2 1 2 2 1 0 1 1 1 1 2 2 3 6 6 5 4 4 3 2 1 0 0
1 0 1 2 2 2 2 3 4 4 3 3 3 3 3 3 3 3 3 3 2 2 1 2 1 0 0 1 1 2 2 3 3 6 7 7 6 5 4 3 2 1 1
2 1 1 2 2 2 2 3 3 4 4 3 3 3 3 3 3 3 3 3 2 2 1 2 2 1 0 1 1 2 2 1 2 4 7 7 6 6 5 4 3 2 2
2 1 2 2 2 2 2 3 3 4 4 3 3 3 3 2 2 3 3 2 2 3 2 2 2 1 0 0 0 1 1 1 1 1 2 4 5 6 6 5 4 3 3
2 2 2 2 2 2 3 3 4 4 4 4 3 3 3 1 1 2 2 2 2 2 2 2 1 1 1 1 1 1 1 1 1 1 0 1 2 2 3 4 5 4 3
2 2 2 2 3 3 3 4 4 4 3 3 3 3 2 2 2 3 3 2 2 2 2 2 1 1 1 1 1 2 1 1 2 1 1 2 2 2 3 3 5 5 4
2 1 2 2 2 2 3 4 5 5 4 3 3 3 4 2 1 2 3 3 3 4 4 2 2 2 1 1 2 2 2 2 2 2 1 2 1 1 1 2 6 6 5
2 2 2 2 2 2 3 4 6 5 4 3 2 2 2 2 3 3 3 2 2 2 3 2 2 2 1 1 1 2 3 3 3 2 1 1 1 0 0 1 5 6 5
2 3 2 2 2 2 3 4 5 4 3 3 2 2 2 1 2 3 2 2 2 2 1 2 3 3 3 2 1 1 2 2 2 1 1 1 1 1 0 1 2 5 5
2 2 2 2 2 2 3 4 4 3 3 3 2 1 1 2 3 2 3 3 3 2 2 1 2 3 4 4 4 2 2 2 2 1 0 0 1 0 1 0 1 2 3
Wind_Direction
211 180 65 277 245 212 192 216 217 223 232 232 235 226 246 258 224 138 156 175 180 187 194 201 204 205 209 211 215 221 225 228 225 224 224 227 229 230 229 231 233 234 234
133 201 199 258 289 280 124 265 242 217 224 232 214 223 226 226 223 169 167 181 190 194 199 204 208 210 213 216 219 220 224 226 230 228 227 229 231 234 235 235 236 238 238
116 264 241 230 285 281 212 245 277 256 231 235 221 221 223 210 194 188 179 180 189 200 202 203 208 214 217 220 223 222 223 224 229 233 229 229 232 234 237 239 240 238 238
199 263 257 235 272 270 236 225 253 272 287 266 246 233 216 197 183 194 199 196 190 195 201 204 209 214 218 223 229 229 223 223 226 231 234 231 230 232 236 238 242 241 240
210 249 255 260 261 244 275 278 137 285 274 274 264 231 212 199 194 202 199 199 198 187 188 193 200 206 213 222 227 231 230 227 226 229 234 235 231 232 236 238 242 243 243
275 296 234 227 288 257 300 326 303 269 255 266 287 285 239 210 195 191 196 197 193 193 191 181 187 204 210 217 224 229 235 233 231 230 233 232 231 233 238 241 243 245 245
312 308 331 239 280 308 338 314 295 286 274 254 293 298 262 217 201 185 181 185 189 190 176 168 176 181 190 205 221 230 235 237 236 231 227 227 228 234 241 245 247 250 247
311 279 292 307 287 273 252 278 285 286 281 263 282 298 298 283 303 200 172 180 191 179 174 177 174 169 177 173 196 213 225 231 238 231 225 226 237 243 245 251 250 250 247
228 285 345 311 318 311 274 246 274 276 291 289 264 270 290 307 317 273 217 190 169 188 185 173 168 169 176 171 182 207 215 220 232 236 234 234 238 248 247 254 252 251 249
227 207 320 322 320 328 328 284 287 285 286 284 286 282 267 288 290 300 292 252 191 199 183 192 179 164 154 162 156 162 190 211 225 241 245 242 245 253 261 265 256 253 249
203 223 161 287 301 312 320 320 335 324 315 309 308 306 297 269 244 246 285 288 257 225 199 203 178 172 164 180 162 148 160 169 208 247 261 260 257 257 262 265 264 258 254
194 261 152 222 285 292 297 305 307 313 307 309 314 312 298 283 269 248 256 269 265 236 206 207 193 178 161 168 181 151 160 173 189 230 258 267 263 259 264 264 270 268 264
195 160 330 252 282 287 286 297 289 293 290 291 287 293 288 277 276 267 260 272 277 264 224 217 201 156 166 157 155 160 171 173 192 214 235 258 270 271 267 265 274 280 274
324 84 150 220 283 291 291 286 272 269 278 276 282 289 291 291 287 277 266 270 290 289 282 277 283 151 181 147 149 152 173 182 186 196 216 240 266 275 276 274 283 301 297
312 44 324 276 271 282 291 294 286 291 297 286 286 289 284 287 293 288 277 264 261 283 284 255 256 111 55 108 140 167 177 190 189 190 199 207 228 241 253 280 288 298 313
346 343 338 313 299 294 301 296 286 276 273 274 273 294 299 300 301 297 289 285 268 265 282 294 258 192 63 123 140 211 177 177 186 189 190 189 187 180 189 201 270 321 339
274 298 311 302 306 311 305 295 287 285 282 287 291 294 290 289 305 305 312 308 306 299 281 298 331 52 31 63 228 237 184 187 189 195 193 191 189 183 180 186 190 195 13
232 243 270 288 294 296 295 293 295 297 294 287 287 289 295 302 300 299 310 308 307 299 288 292 295 304 299 225 224 239 224 207 196 191 188 192 193 191 186 179 177 174 172
233 237 248 264 275 280 290 297 298 296 291 283 273 267 273 285 294 303 306 307 307 312 300 274 276 273 276 283 283 281 281 259 219 182 187 195 197 197 195 184 182 189 188
243 248 255 260 268 289 303 308 305 293 290 291 285 275 265 262 281 289 292 309 310 305 292 273 255 246 234 255 126 287 306 313 302 231 192 192 196 200 196 186 191 195 192
255 261 260 267 267 269 295 310 297 289 291 288 285 278 269 254 300 287 292 302 307 307 308 305 299 309 304 5 315 292 309 303 291 301 286 215 180 192 202 202 199 195 192
247 249 258 271 277 288 319 319 309 294 284 285 294 294 277 243 240 241 256 254 268 273 286 298 308 301 313 313 298 297 314 318 293 283 285 268 177 185 191 189 187 185 186
248 262 266 259 265 292 320 318 312 294 284 285 286 293 296 315 321 290 273 241 241 249 238 239 273 280 276 303 303 293 291 280 270 269 254 270 232 213 169 161 165 171 178
265 251 248 248 254 288 311 308 308 285 281 275 271 273 282 303 315 323 296 277 245 245 233 222 228 252 253 272 270 267 263 268 262 266 259 265 254 252 66 144 168 168 179
255 250 261 256 258 281 281 286 297 281 272 271 265 277 267 249 306 322 298 277 264 248 217 193 206 216 225 228 230 285 282 277 274 236 218 238 266 253 198 165 183 182 185
256 258 257 265 268 265 262 274 293 287 284 280 261 245 252 254 254 266 258 262 269 282 275 261 233 227 220 217 219 225 259 272 284 271 198 214 275 324 299 149 139 172 197